TimeEDT,TemperatureF,Dew PointF,Humidity,Sea Level PressureIn,VisibilityMPH,Wind Direction,Wind SpeedMPH,Gust SpeedMPH,PrecipitationIn,Events,Conditions,WindDirDegrees,DateUTC
12:46 AM,69.8,66.2,88,29.84,10.0,Calm,Calm,-,N/A,,Overcast,0,2013-07-11 04:46:00
12:54 AM,69.1,66.0,90,29.83,10.0,Calm,Calm,-,N/A,,Overcast,0,2013-07-11 04:54:00
1:27 AM,69.8,66.2,88,29.84,10.0,Calm,Calm,-,N/A,,Scattered Clouds,0,2013-07-11 05:27:00
1:54 AM,68.0,66.0,93,29.83,8.0,West,3.5,-,N/A,,Mostly Cloudy,260,2013-07-11 05:54:00
2:24 AM,68.0,66.2,94,29.85,10.0,West,3.5,-,N/A,,Mostly Cloudy,270,2013-07-11 06:24:00
2:34 AM,68.0,66.2,94,29.85,10.0,WNW,4.6,-,N/A,,Scattered Clouds,290,2013-07-11 06:34:00
2:54 AM,68.0,64.9,90,29.84,10.0,WNW,3.5,-,N/A,,Partly Cloudy,290,2013-07-11 06:54:00
3:14 AM,68.0,66.2,94,29.87,9.0,Calm,Calm,-,N/A,,Mostly Cloudy,0,2013-07-11 07:14:00
3:47 AM,68.0,64.4,88,29.87,9.0,Calm,Calm,-,N/A,,Mostly Cloudy,0,2013-07-11 07:47:00
3:54 AM,68.0,64.9,90,29.86,10.0,SW,3.5,-,N/A,,Mostly Cloudy,230,2013-07-11 07:54:00
4:11 AM,68.0,64.4,88,29.87,10.0,Calm,Calm,-,N/A,,Overcast,0,2013-07-11 08:11:00
4:54 AM,68.0,64.9,90,29.87,10.0,West,5.8,-,N/A,,Mostly Cloudy,280,2013-07-11 08:54:00
5:45 AM,66.2,64.4,94,29.88,10.0,West,8.1,-,N/A,,Scattered Clouds,280,2013-07-11 09:45:00
5:54 AM,66.9,64.0,90,29.88,10.0,West,8.1,-,N/A,,Partly Cloudy,270,2013-07-11 09:54:00
6:54 AM,66.9,64.0,90,29.90,10.0,West,6.9,-,N/A,,Overcast,270,2013-07-11 10:54:00
7:44 AM,68.0,64.4,88,29.92,10.0,West,9.2,-,N/A,,Mostly Cloudy,270,2013-07-11 11:44:00
7:54 AM,70.0,64.9,84,29.91,10.0,West,13.8,-,N/A,,Mostly Cloudy,260,2013-07-11 11:54:00
8:54 AM,73.0,64.0,73,29.92,10.0,West,10.4,-,N/A,,Clear,280,2013-07-11 12:54:00
9:54 AM,75.0,62.1,64,29.92,10.0,NNW,5.8,-,N/A,,Partly Cloudy,340,2013-07-11 13:54:00
10:54 AM,78.1,60.1,54,29.92,10.0,NW,6.9,-,N/A,,Partly Cloudy,320,2013-07-11 14:54:00
11:54 AM,80.1,55.0,42,29.91,10.0,Variable,5.8,-,N/A,,Partly Cloudy,0,2013-07-11 15:54:00
12:54 PM,81.0,55.9,42,29.91,10.0,NW,9.2,-,N/A,,Clear,310,2013-07-11 16:54:00
1:54 PM,82.9,55.0,38,29.89,10.0,WNW,11.5,17.3,N/A,,Scattered Clouds,300,2013-07-11 17:54:00
2:54 PM,84.0,55.0,37,29.90,10.0,Variable,5.8,-,N/A,,Scattered Clouds,0,2013-07-11 18:54:00
3:54 PM,82.9,54.0,37,29.89,10.0,Variable,6.9,-,N/A,,Mostly Cloudy,0,2013-07-11 19:54:00
4:54 PM,81.0,54.0,39,29.89,10.0,NNW,5.8,-,N/A,,Scattered Clouds,340,2013-07-11 20:54:00
5:54 PM,81.0,53.1,38,29.90,10.0,NNE,9.2,-,N/A,,Partly Cloudy,20,2013-07-11 21:54:00
6:54 PM,80.1,54.0,40,29.91,10.0,North,9.2,-,N/A,,Mostly Cloudy,360,2013-07-11 22:54:00
7:54 PM,78.1,55.0,45,29.93,10.0,North,6.9,-,N/A,,Scattered Clouds,10,2013-07-11 23:54:00
8:54 PM,71.1,61.0,70,29.94,10.0,Calm,Calm,-,N/A,,Clear,0,2013-07-12 00:54:00
9:54 PM,68.0,59.0,73,29.95,10.0,Calm,Calm,-,N/A,,Clear,0,2013-07-12 01:54:00
10:54 PM,64.9,59.0,81,29.96,10.0,SSW,3.5,-,N/A,,Clear,210,2013-07-12 02:54:00
11:54 PM,64.0,59.0,84,29.97,10.0,West,3.5,-,N/A,,Clear,260,2013-07-12 03:54:00